Preview of NWS' New Version of Forecast
This preview is not operational and should not be used for support decisions.

Regional Weather Roundup (RWR)

Issued by National Weather Service (NWS)

                            
000
ASUS45 KCYS 190310
RWRWY 

WYOMING REGIONAL WEATHER ROUNDUP
NATIONAL WEATHER SERVICE CHEYENNE WY
900 PM MDT TUE JUN 18 2019

NOTE:  "FAIR" INDICATES FEW OR NO CLOUDS BELOW 12,000 FEET
WITH NO SIGNIFICANT WEATHER AND/OR OBSTRUCTIONS TO VISIBILITY.

WYZ001-190400-
YELLOWSTONE NATIONAL PARK
  
CITY           SKY/WX    TMP DP  RH WIND       PRES   REMARKS
LK YELLOWSTONE NOT AVBL                                               
W YELLOWSTONE  NOT AVBL                                               

$$
WYZ002>013-054>058-071-098>099-190400-
NORTHERN WYOMING
  
CITY           SKY/WX    TMP DP  RH WIND       PRES   REMARKS
JACKSON        LGT RAIN  51  47  86 SW7       30.14F                  
CODY           MOCLDY    62  46  55 N3        30.01R                  
GREYBULL       MOCLDY    73  44  35 NW13      29.89R                  
WORLAND        FAIR      68  48  48 W9        29.91R                  
SHERIDAN       CLOUDY    61  52  72 W3        29.94R                  
BUFFALO        CLOUDY    59  51  75 NW8       29.98F                  
GILLETTE       MOCLDY    59  56  89 S13       29.90F                  
NEWCASTLE      MOCLDY    57  52  82 SE7       29.94                   

$$
WYZ014>020-022>026-101>103-190400-
CENTRAL WYOMING
  
CITY           SKY/WX    TMP DP  RH WIND       PRES   REMARKS
BIG PINEY      LGT RAIN  54  43  66 N31G51    30.19R SQUALL           
PINEDALE       DRIZZLE   54  37  54 N25G39    30.21                   
DUBOIS         FAIR      55  32  41 W5G20     30.12                   
LANDER         CLOUDY    65  49  56 NW6       29.98R                  
RIVERTON       MOCLDY    67  46  47 NE9       29.99R                  
CASPER         FAIR      57  53  86 CALM      29.99R                  
DOUGLAS        FAIR      55  50  83 SE8       29.98F                  

$$
WYZ021-027>030-104>119-190400-
SOUTHERN WYOMING
  
CITY           SKY/WX    TMP DP  RH WIND       PRES   REMARKS
EVANSTON       FAIR      60  39  45 W14       30.17R                  
KEMMERER       FAIR      59  45  58 NW6       30.18                   
ROCK SPRINGS   FAIR      58  42  55 W12       30.12S                  
DIXON          DRIZZLE   56  45  67 S18G25    30.18R                  
RAWLINS        FAIR      55  44  66 S6        30.09F                  
SARATOGA       DRIZZLE   54  45  71 S7        30.15R                  
LARAMIE        FAIR      46  43  89 SE8       30.11F                  
CHEYENNE       MOCLDY    57  48  72 SW3       30.08R                  
TORRINGTON     FAIR      57  56  96 SE5       29.96R                  
PINE BLUFFS    FAIR      55  55 100 S5        30.03S                  

$$